Weather in Kurashiki

Japan     34°36′09″N   133°46′03″E
temp.,
°C
wind,
m/s
gust,
m/s
humid.,
%
clouds,
%
prec.,
mm/h
press.,
hPa
HPBL,
m
19 april, mon
mon1900:00+10w47630 0.0 1017419
03:00+9w25690 0.0 1016219
06:00+9w36720 0.0 1017251
09:00+13wsw45580 0.0 1017532
12:00+14sw77560 0.0 1016572
15:00+16sw79530 0.0 1014499
18:00+15wsw611610 0.0 1015518
21:00+14w38590 0.0 1017230
20 april, tue
tue2000:00+12w33590 0.0 101894
03:00+11w23580 0.0 101893
06:00+11w23600 0.0 101985
09:00+15wsw46541 0.0 1020374
12:00+16sw55530 0.0 1020323
15:00+17wsw56486 0.0 1019283
18:00+17w335193 0.0 1020110
21:00+16nw11575 0.0 102211
21 april, wed
wed2100:00+14n11665 0.0 102315
03:00+13nne22734 0.0 102329
06:00+12nne22720 0.0 102446
09:00+17e11530 0.0 1024300
12:00+20sse22410 0.0 1023673
15:00+20sse32405 0.0 1021470
18:00+19w224020 0.0 1021115
21:00+17e11469 0.0 102211
22 april, thu
thu2200:00+16ne11545 0.0 102211
03:00+15ne2261100 0.0 102219
06:00+14ne2260100 0.0 102232
09:00+18ene224595 0.0 1022267
12:00+20ese2335100 0.0 1021502
15:00+21e343095 0.0 1018596
18:00+20e24335 0.0 1018115
21:00+18e114185 0.0 101914
23 april, fri
fri2300:00+16e2648100 0.0 1019156
03:00+15ene2253100 0.0 101825
06:00+14ene3555100 0.0 1019133
09:00+16ene4743100 0.0 1020472
12:00+18ene5750100 0.0 1020552
15:00+19e2249100 0.0 1018612
18:00+19ssw1158100 0.0 101844
21:00+17n2367100 0.0 1019150